Regional Weather Roundup
Issued by NWS

Home | Current Version | Previous Version | Graphics & Text | Print | Product List | Glossary On
Versions: 1 2 3 4 5 6 7 8 9 10 11 12 13 14 15 16 17 18 19 20 21 22 23 24 25 26 27 28 29 30 31 32 33 34 35 36 37 38 39 40 41 42 43 44 45 46 47 48 49 50
000
ASUS43 KLMK 240602
RWRKY
KENTUCKY REGIONAL WEATHER ROUNDUP
NATIONAL WEATHER SERVICE LOUISVILLE KY
100 AM EST TUE JAN 24 2017

NOTE "FAIR" INDICATES FEW OR NO CLOUDS BELOW 12,000 FEET
WITH NO SIGNIFICANT WEATHER AND/OR OBSTRUCTIONS TO VISIBILITY.

KYZ001>023-026-027-061>063-070>075-240700-
WESTERN AND SOUTH CENTRAL KENTUCKY

CITY           SKY/WX    TMP DP  RH WIND       PRES   REMARKS
PADUCAH        CLOUDY    42  33  70 NW7       29.87S
HENDERSON      CLOUDY    43  34  70 NW9       29.85S
OWENSBORO      CLOUDY    42  36  79 NW9       29.84S
HOPKINSVILLE   CLOUDY    41  35  78 N3        29.84F
BOWLING GREEN  CLOUDY    42  35  76 W13       29.83S
GLASGOW        NOT AVBL
$$

KYZ024-025-028>034-038-045-046-053-240700-
NORTH CENTRAL KENTUCKY

CITY           SKY/WX    TMP DP  RH WIND       PRES   REMARKS
LOUISVILLE/SDF CLOUDY    42  37  82 NW10      29.78S
LOUISVILLE/LOU CLOUDY    41  38  89 W9        29.78S FOG
FORT KNOX      CLOUDY    39  38  94 W8        29.77F WCI  34
$$

KYZ035>037-039>044-047>052-055>060-089>105-240700-
NORTHEAST KENTUCKY

CITY           SKY/WX    TMP DP  RH WIND       PRES   REMARKS
LEXINGTON      CLOUDY    42  40  92 NW14      29.73R FOG
COVINGTON      DRIZZLE   42  40  92 NW14      29.70S
FRANKFORT      CLOUDY    42  38  85 W7G17     29.73R
$$

KYZ054-064>069-076>088-106>120-240700-
SOUTHEAST KENTUCKY

CITY           SKY/WX    TMP DP  RH WIND       PRES   REMARKS
JACKSON        CLOUDY    43  41  93 VRB6      29.67R
LONDON         CLOUDY    42  39  89 W12       29.72R FOG
SOMERSET       NOT AVBL
MIDDLESBORO    DRIZZLE   43  41  94 NW9       29.72R
MONTICELLO     CLOUDY    41  39  93 W12       29.79S
$$





USA.gov is the U.S. government's official web portal to all federal, state and local government web resources and services.